Regional Weather Roundup
Issued by NWS Raleigh/Durham, NC

Home | Current Version | Previous Version | Text Only | Print | Product List | Glossary On
Versions: 1 2 3 4 5 6 7 8 9 10 11 12 13 14 15 16 17 18 19 20 21 22 23 24 25 26 27
000
ASUS42 KRAH 142310
RWRRAH
NORTH CAROLINA WEATHER ROUNDUP
NATIONAL WEATHER SERVICE RALEIGH NC
600 PM EST THU DEC 14 2017

NOTE: "FAIR" INDICATES FEW OR NO CLOUDS BELOW 12,000 FEET WITH NO
SIGNIFICANT WEATHER AND/OR OBSTRUCTIONS TO VISIBILITY.

NCZ001-053-055-056-065-067-150000-
WESTERN NORTH CAROLINA

CITY           SKY/WX    TMP DP  RH WIND       PRES   REMARKS
ASHEVILLE      CLEAR     43  28  55 N13       29.90R
JEFFERSON      CLEAR     35  25  67 NW5       29.87R WCI  30
MORGANTON      CLEAR     45  29  52 NE3       29.92R
HICKORY        CLEAR     46  27  47 E6        29.89R
RUTHERFORDTON  NOT AVBL
MOUNT AIRY     PTCLDY    45  25  44 NW3       29.93R
BOONE          CLEAR     37  25  61 W8        29.88R WCI  31
$$

NCZ021-022-025-041-071-084-088-150000-
CENTRAL NORTH CAROLINA

CITY           SKY/WX    TMP DP  RH WIND       PRES   REMARKS
CHARLOTTE      PTCLDY    47  29  49 S5        29.91R
GREENSBORO     MOCLDY    48  26  42 N3        29.91R
WINSTON-SALEM  PTCLDY    45  25  45 CALM      29.93R
RALEIGH-DURHAM PTCLDY    47  26  44 CALM      29.94R
FORT BRAGG     CLEAR     45  33  64 CALM      29.91R
FAYETTEVILLE   CLEAR     49  33  54 SW5       29.92R
BURLINGTON     CLEAR     47  27  45 N3        29.92R
LAURINBURG     CLEAR     47  32  56 CALM      29.93R
$$

NCZ011-015-027-028-043-044-047-080-103-150000-
NORTHEASTERN NORTH CAROLINA

CITY           SKY/WX    TMP DP  RH WIND       PRES   REMARKS
ROCKY MT-WILSO CLEAR     43  32  65 CALM      29.94R
GREENVILLE     CLEAR     41  30  65 CALM      29.96R
WASHINGTON     CLEAR     45  31  58 CALM      29.94R
ELIZABETH CITY PTCLDY    45  34  65 NE12      29.97R
MANTEO         CLEAR     45  35  67 NE8       29.96R
CAPE HATTERAS  CLEAR     40  35  83 CALM      29.95R
$$

NCZ078-087-090-091-093-098-101-150000-
SOUTHEASTERN NORTH CAROLINA

CITY           SKY/WX    TMP DP  RH WIND       PRES   REMARKS
LUMBERTON      CLEAR     45  34  65 CALM      29.93R
GOLDSBORO      CLEAR     44  29  55 CALM      29.92R
KINSTON        CLEAR     39  32  75 CALM      29.95R
KENANSVILLE    CLEAR     41  34  75 CALM      29.93R
NEW BERN       CLEAR     42  36  79 CALM      29.94R
CHERRY POINT   CLEAR     43  35  73 CALM      29.94R
BEAUFORT       CLEAR     44  41  89 CALM      29.94R
JACKSONVILLE   CLEAR     44  36  73 CALM      29.93R
WILMINGTON     CLOUDY    50  37  61 SW5       29.94R
$$





USA.gov is the U.S. government's official web portal to all federal, state and local government web resources and services.